TimeCST,TemperatureF,Dew PointF,Humidity,Sea Level PressureIn,VisibilityMPH,Wind Direction,Wind SpeedMPH,Gust SpeedMPH,PrecipitationIn,Events,Conditions,WindDirDegrees,DateUTC
12:54 AM,9.0,-2.0,61,30.29,10.0,SSW,9.2,-,N/A,,Overcast,210,2013-01-23 06:54:00
1:54 AM,10.0,-0.0,64,30.28,10.0,SSW,8.1,-,N/A,,Overcast,210,2013-01-23 07:54:00
2:54 AM,10.9,1.9,67,30.27,10.0,SSW,5.8,-,N/A,,Overcast,200,2013-01-23 08:54:00
3:54 AM,10.9,3.0,70,30.24,8.0,SSW,5.8,-,0.00,Snow,Light Snow,200,2013-01-23 09:54:00
4:05 AM,10.4,3.2,73,30.14,2.5,SSW,6.9,-,0.00,Snow,Light Snow,210,2013-01-23 10:05:00
4:45 AM,10.4,5.0,79,30.13,3.0,SSW,6.9,-,0.01,Snow,Light Snow,210,2013-01-23 10:45:00
4:54 AM,10.9,5.0,77,30.23,3.0,SSW,6.9,-,0.01,Snow,Light Snow,200,2013-01-23 10:54:00
5:02 AM,10.4,5.0,79,30.13,2.0,SSW,5.8,-,0.00,Snow,Light Snow,200,2013-01-23 11:02:00
5:17 AM,10.4,6.8,85,30.13,2.5,SSW,5.8,-,0.00,Snow,Light Snow,200,2013-01-23 11:17:00
5:28 AM,10.4,6.8,85,30.13,2.5,SSW,6.9,-,0.00,Snow,Light Snow,200,2013-01-23 11:28:00
5:54 AM,10.9,6.1,81,30.22,2.5,SSW,6.9,-,0.00,Snow,Light Snow,200,2013-01-23 11:54:00
6:03 AM,10.4,6.8,85,30.12,2.5,SSW,8.1,-,0.01,Snow,Light Snow,200,2013-01-23 12:03:00
6:32 AM,10.4,6.8,85,30.12,4.0,SSW,10.4,-,0.01,Snow,Light Snow,210,2013-01-23 12:32:00
6:54 AM,10.9,6.1,81,30.20,8.0,SSW,9.2,-,0.01,,Overcast,210,2013-01-23 12:54:00
7:54 AM,12.0,7.0,80,30.19,5.0,SW,5.8,-,0.00,Snow,Light Snow,220,2013-01-23 13:54:00
8:54 AM,12.9,8.1,81,30.20,7.0,WSW,9.2,-,0.00,,Overcast,250,2013-01-23 14:54:00
9:54 AM,15.1,9.0,77,30.21,5.0,West,11.5,-,0.00,Snow,Light Snow,270,2013-01-23 15:54:00
10:10 AM,15.8,8.6,73,30.13,5.0,WNW,13.8,-,0.00,Snow,Light Snow,290,2013-01-23 16:10:00
10:54 AM,15.1,9.0,77,30.22,3.0,WNW,16.1,-,0.00,Snow,Light Snow,290,2013-01-23 16:54:00
11:02 AM,15.8,8.6,73,30.13,2.5,WNW,16.1,-,0.00,Snow,Light Snow,300,2013-01-23 17:02:00
11:11 AM,15.8,8.6,73,30.13,4.0,WNW,13.8,-,0.00,Snow,Light Snow,300,2013-01-23 17:11:00
11:30 AM,15.8,8.6,73,30.13,2.5,WNW,15.0,-,0.00,Snow,Light Snow,300,2013-01-23 17:30:00
11:52 AM,15.8,8.6,73,30.12,3.0,NW,17.3,-,0.00,Snow,Light Snow,310,2013-01-23 17:52:00
11:54 AM,16.0,8.1,71,30.20,3.0,NW,18.4,-,0.00,Snow,Light Snow,310,2013-01-23 17:54:00
12:00 PM,15.8,8.6,73,30.12,2.0,NW,18.4,-,0.00,Snow,Light Snow,310,2013-01-23 18:00:00
12:37 PM,15.8,8.6,73,30.11,5.0,NW,19.6,25.3,0.00,Snow,Light Snow,310,2013-01-23 18:37:00
12:54 PM,17.1,7.0,65,30.19,9.0,NW,19.6,-,0.00,,Overcast,310,2013-01-23 18:54:00
1:33 PM,17.6,8.6,68,30.10,1.8,WNW,20.7,-,0.00,Snow,Light Snow,300,2013-01-23 19:33:00
1:54 PM,17.1,9.0,71,30.18,2.5,WNW,18.4,26.5,0.00,Snow,Light Snow,290,2013-01-23 19:54:00
2:01 PM,17.6,8.6,68,30.10,3.0,WNW,19.6,-,0.00,Snow,Light Snow,300,2013-01-23 20:01:00
2:36 PM,17.6,8.6,68,30.12,2.0,NW,19.6,27.6,0.00,Snow,Light Snow,310,2013-01-23 20:36:00
2:54 PM,16.0,5.0,62,30.20,8.0,NW,23.0,33.4,0.00,,Overcast,310,2013-01-23 20:54:00
3:54 PM,14.0,1.9,59,30.25,10.0,NW,24.2,34.5,0.00,,Mostly Cloudy,320,2013-01-23 21:54:00
4:54 PM,10.9,-2.0,56,30.29,10.0,NNW,24.2,39.1,0.00,,Scattered Clouds,330,2013-01-23 22:54:00
5:54 PM,8.1,-4.0,58,30.35,10.0,NNW,28.8,34.5,N/A,,Scattered Clouds,330,2013-01-23 23:54:00
6:54 PM,5.0,-6.0,61,30.41,10.0,North,24.2,31.1,N/A,,Mostly Cloudy,350,2013-01-24 00:54:00
7:02 PM,5.0,-7.6,56,30.33,10.0,North,21.9,36.8,N/A,,Partly Cloudy,350,2013-01-24 01:02:00
7:54 PM,1.9,-11.9,52,30.46,10.0,North,21.9,31.1,N/A,,Clear,360,2013-01-24 01:54:00
8:54 PM,1.0,-11.9,55,30.50,10.0,North,11.5,-,N/A,,Clear,360,2013-01-24 02:54:00
9:54 PM,-0.9,-15.0,52,30.54,10.0,North,19.6,26.5,N/A,,Clear,10,2013-01-24 03:54:00
10:54 PM,-2.0,-15.0,54,30.57,10.0,North,18.4,-,N/A,,Clear,360,2013-01-24 04:54:00
11:54 PM,-2.9,-16.1,54,30.60,10.0,North,12.7,-,N/A,,Clear,10,2013-01-24 05:54:00